Terminal Aerodrome Forecast
Issued by NWS Twin Cities, MN

Home | Current Version | Previous Version | Graphics & Text | Print | Product List | Glossary On
Versions: 1 2 3 4 5 6 7 8 9 10 11 12 13 14 15 16 17 18 19 20 21 22 23 24 25 26
000
FTUS43 KMPX 211200 CCA
TAFMSP
TAF COR
KMSP 211229Z 2112/2218 34013G20KT P6SM SCT020 BKN045
      TEMPO 2112/2115 BKN020
     FM212100 33009KT P6SM SCT045
     FM220200 VRB03KT P6SM SKC
     FM221400 26006KT P6SM SKC=

USA.gov is the U.S. government's official web portal to all federal, state and local government web resources and services.